When you browse on this site, cookies collect data to enhance your experience and personalize the content and advertising you see.
Visit our Privacy Policy to learn more. By continuing to use the site, you agree to this use of cookies and data.
  • In Germany
  • List of Countries
  • For 7 days
  • Water Temperature
  • Satellite Maps
  • Weather Map
  • Weather Widgets
  • user-avatar
    Login

    Hourly Weather Crete

    Today, 16 December, Sunday

    Time Temperature Precipitation Wind Pressure Humidity
    00:00 +11°C° 0.3 mm 7 mps 707 mmHg 75%
    01:00 +11°C° 0.3 mm 7 mps 707 mmHg 75%
    02:00 +11°C° 0.3 mm 6 mps 706 mmHg 75%
    03:00 +10°C° 0.2 mm 6 mps 706 mmHg 77%
    04:00 +10°C° 0.2 mm 5 mps 706 mmHg 78%
    05:00 +10°C° 0.2 mm 4 mps 705 mmHg 79%
    06:00 +10°C° 0.1 mm 4 mps 705 mmHg 79%
    07:00 +10°C° 0.1 mm 4 mps 705 mmHg 80%
    08:00 +10°C° 0.1 mm 4 mps 705 mmHg 81%
    09:00 +10°C° 0.1 mm 4 mps 705 mmHg 77%
    10:00 +11°C° 0.1 mm 4 mps 705 mmHg 73%
    11:00 +12°C° 0.1 mm 4 mps 705 mmHg 69%
    12:00 +12°C° 0 mm 4 mps 705 mmHg 66%
    13:00 +13°C° 0 mm 4 mps 705 mmHg 64%
    14:00 +13°C° 0 mm 4 mps 705 mmHg 61%
    15:00 +13°C° 0 mm 4 mps 705 mmHg 64%
    16:00 +12°C° 0 mm 4 mps 705 mmHg 66%
    17:00 +12°C° 0 mm 5 mps 705 mmHg 69%
    18:00 +10°C° 0 mm 5 mps 706 mmHg 70%
    19:00 +10°C° 0 mm 5 mps 706 mmHg 71%
    20:00 +10°C° 0 mm 5 mps 706 mmHg 72%
    21:00 +10°C° 0 mm 6 mps 706 mmHg 74%
    22:00 +10°C° 0 mm 6 mps 707 mmHg 76%
    23:00 +9°C° 0 mm 7 mps 707 mmHg 77%

    Tomorrow, 17 December, Monday

    Time Temperature Precipitation Wind Pressure Humidity
    00:00 +9°C° 0 mm 6 mps 707 mmHg 75%
    01:00 +9°C° 0 mm 6 mps 707 mmHg 74%
    02:00 +8°C° 0 mm 6 mps 707 mmHg 72%
    03:00 +8°C° 0 mm 6 mps 707 mmHg 72%
    04:00 +8°C° 0 mm 6 mps 707 mmHg 72%
    05:00 +8°C° 0 mm 5 mps 707 mmHg 73%
    06:00 +8°C° 0.1 mm 5 mps 708 mmHg 75%
    07:00 +10°C° 0.1 mm 4 mps 708 mmHg 77%
    08:00 +10°C° 0.1 mm 4 mps 709 mmHg 79%
    09:00 +11°C° 0 mm 4 mps 709 mmHg 73%
    10:00 +12°C° 0 mm 4 mps 709 mmHg 68%
    11:00 +13°C° 0 mm 4 mps 710 mmHg 62%
    12:00 +13°C° 0 mm 4 mps 709 mmHg 61%
    13:00 +13°C° 0 mm 5 mps 709 mmHg 61%
    14:00 +13°C° 0 mm 5 mps 709 mmHg 60%
    15:00 +13°C° 0 mm 5 mps 709 mmHg 62%
    16:00 +12°C° 0 mm 5 mps 709 mmHg 64%
    17:00 +12°C° 0 mm 5 mps 709 mmHg 66%
    18:00 +10°C° 0 mm 5 mps 709 mmHg 69%
    19:00 +10°C° 0 mm 5 mps 709 mmHg 71%
    20:00 +10°C° 0 mm 4 mps 710 mmHg 73%
    21:00 +10°C° 0 mm 4 mps 709 mmHg 75%
    22:00 +10°C° 0 mm 4 mps 709 mmHg 78%
    23:00 +10°C° 0 mm 4 mps 709 mmHg 80%

    Day after tomorrow, 18 December, Tuesday

    Time Temperature Precipitation Wind Pressure Humidity
    00:00 +10°C° 0.3 mm 4 mps 709 mmHg 83%
    01:00 +10°C° 0.3 mm 5 mps 709 mmHg 85%
    02:00 +10°C° 0.3 mm 5 mps 708 mmHg 88%
    03:00 +10°C° 0.7 mm 6 mps 708 mmHg 87%
    04:00 +10°C° 0.7 mm 6 mps 707 mmHg 86%
    05:00 +10°C° 0.7 mm 7 mps 707 mmHg 85%
    06:00 +10°C° 0.3 mm 7 mps 707 mmHg 84%
    07:00 +10°C° 0.3 mm 7 mps 707 mmHg 82%
    08:00 +10°C° 0.3 mm 7 mps 707 mmHg 81%
    09:00 +10°C° 0 mm 7 mps 707 mmHg 76%
    10:00 +11°C° 0 mm 8 mps 707 mmHg 70%
    11:00 +12°C° 0 mm 8 mps 707 mmHg 65%
    12:00 +12°C° 0.1 mm 8 mps 707 mmHg 63%
    13:00 +11°C° 0.1 mm 8 mps 707 mmHg 61%
    14:00 +11°C° 0.1 mm 9 mps 706 mmHg 60%
    15:00 +11°C° 0.1 mm 8 mps 706 mmHg 62%
    16:00 +10°C° 0.1 mm 8 mps 706 mmHg 65%
    17:00 +10°C° 0.1 mm 7 mps 706 mmHg 68%
    18:00 +9°C° 0.1 mm 7 mps 707 mmHg 69%
    19:00 +9°C° 0.1 mm 7 mps 707 mmHg 70%
    20:00 +9°C° 0.1 mm 7 mps 707 mmHg 71%
    21:00 +9°C° 0.1 mm 7 mps 707 mmHg 72%
    22:00 +9°C° 0.1 mm 6 mps 707 mmHg 72%
    23:00 +8°C° 0.1 mm 6 mps 707 mmHg 73%

    19 December, Wednesday

    Time Temperature Precipitation Wind Pressure Humidity
    00:00 +9°C° 0.1 mm 6 mps 707 mmHg 73%
    01:00 +9°C° 0.1 mm 6 mps 707 mmHg 72%
    02:00 +9°C° 0.1 mm 6 mps 707 mmHg 72%
    03:00 +9°C° 0.3 mm 7 mps 708 mmHg 74%
    04:00 +9°C° 0.3 mm 8 mps 708 mmHg 75%
    05:00 +7°C° 0.3 mm 8 mps 708 mmHg 77%
    06:00 +8°C° 0.4 mm 9 mps 709 mmHg 76%
    07:00 +8°C° 0.4 mm 9 mps 709 mmHg 75%
    08:00 +8°C° 0.4 mm 9 mps 710 mmHg 74%
    09:00 +8°C° 0.2 mm 9 mps 711 mmHg 72%
    10:00 +10°C° 0.2 mm 9 mps 711 mmHg 69%
    11:00 +10°C° 0.2 mm 8 mps 712 mmHg 67%
    12:00 +10°C° 0.1 mm 8 mps 712 mmHg 67%
    13:00 +10°C° 0.1 mm 8 mps 712 mmHg 67%
    14:00 +10°C° 0.1 mm 7 mps 712 mmHg 68%
    15:00 +9°C° 0 mm 7 mps 712 mmHg 68%
    16:00 +9°C° 0 mm 6 mps 712 mmHg 68%
    17:00 +9°C° 0 mm 6 mps 713 mmHg 69%
    18:00 +8°C° 0 mm 5 mps 713 mmHg 70%
    19:00 +8°C° 0 mm 5 mps 713 mmHg 72%
    20:00 +7°C° 0 mm 4 mps 714 mmHg 73%
    21:00 +7°C° 0 mm 4 mps 714 mmHg 74%
    22:00 +8°C° 0 mm 3 mps 714 mmHg 76%
    23:00 +8°C° 0 mm 3 mps 714 mmHg 77%

    20 December, Thursday

    Time Temperature Precipitation Wind Pressure Humidity
    00:00 +8°C° 0 mm 3 mps 714 mmHg 79%
    01:00 +7°C° 0 mm 3 mps 714 mmHg 80%
    02:00 +7°C° 0 mm 3 mps 714 mmHg 82%
    03:00 +7°C° 0 mm 3 mps 714 mmHg 82%
    04:00 +7°C° 0 mm 3 mps 714 mmHg 83%
    05:00 +7°C° 0 mm 3 mps 714 mmHg 83%
    06:00 +7°C° 0 mm 3 mps 714 mmHg 82%
    07:00 +7°C° 0 mm 2 mps 714 mmHg 81%
    08:00 +7°C° 0 mm 2 mps 715 mmHg 80%
    09:00 +9°C° 0 mm 2 mps 715 mmHg 73%
    10:00 +10°C° 0 mm 2 mps 715 mmHg 65%
    11:00 +12°C° 0 mm 1 mps 716 mmHg 58%
    12:00 +13°C° 0 mm 2 mps 715 mmHg 56%
    13:00 +13°C° 0 mm 2 mps 715 mmHg 54%
    14:00 +13°C° 0 mm 2 mps 715 mmHg 53%
    15:00 +13°C° 0 mm 2 mps 715 mmHg 57%
    16:00 +12°C° 0 mm 2 mps 715 mmHg 62%
    17:00 +12°C° 0 mm 2 mps 715 mmHg 67%
    18:00 +10°C° 0 mm 2 mps 715 mmHg 70%
    19:00 +9°C° 0 mm 2 mps 715 mmHg 73%
    20:00 +9°C° 0 mm 2 mps 715 mmHg 77%
    21:00 +9°C° 0 mm 2 mps 715 mmHg 78%
    22:00 +8°C° 0 mm 2 mps 715 mmHg 79%
    23:00 +8°C° 0 mm 2 mps 715 mmHg 80%

    21 December, Friday

    Time Temperature Precipitation Wind Pressure Humidity
    00:00 +8°C° 0 mm 2 mps 715 mmHg 81%
    01:00 +8°C° 0 mm 2 mps 715 mmHg 81%
    02:00 +8°C° 0 mm 2 mps 715 mmHg 81%
    03:00 +7°C° 0 mm 2 mps 715 mmHg 82%
    04:00 +7°C° 0 mm 2 mps 715 mmHg 82%
    05:00 +7°C° 0 mm 2 mps 714 mmHg 82%
    06:00 +7°C° 0 mm 2 mps 715 mmHg 82%
    07:00 +7°C° 0 mm 2 mps 715 mmHg 81%
    08:00 +7°C° 0 mm 2 mps 715 mmHg 81%
    09:00 +10°C° 0 mm 1 mps 715 mmHg 74%
    10:00 +11°C° 0 mm 1 mps 715 mmHg 67%
    11:00 +12°C° 0 mm 1 mps 715 mmHg 61%
    12:00 +12°C° 0 mm 1 mps 715 mmHg 61%
    13:00 +13°C° 0 mm 2 mps 715 mmHg 61%
    14:00 +13°C° 0 mm 2 mps 714 mmHg 61%
    15:00 +12°C° 0 mm 2 mps 714 mmHg 62%
    16:00 +12°C° 0 mm 2 mps 714 mmHg 63%
    17:00 +12°C° 0 mm 2 mps 714 mmHg 64%
    18:00 +10°C° 0 mm 2 mps 714 mmHg 68%
    19:00 +10°C° 0 mm 3 mps 714 mmHg 71%
    20:00 +9°C° 0 mm 3 mps 714 mmHg 74%
    21:00 +9°C° 0 mm 3 mps 713 mmHg 78%
    22:00 +8°C° 0 mm 4 mps 713 mmHg 82%
    23:00 +8°C° 0 mm 4 mps 713 mmHg 86%
    Show more